This demonstration page uses our WeatherBlox Daily Observations layout. Learn more.

Left ArrowRight Arrow

Hourly Observations for February 23, 2016

Temp ( °F °C ) Dew Point ( °F °C ) Humidity (%) Winds ( mph kmh ) Pressure ( in mb ) Visibility ( mi km ) Precip ( " mm )
12:51 am 00:51 Clear 36 2.2 14 -10 40 40 N 5 7 30.27 1025 10 16 0.00 0.00
1:51 am 01:51 Clear 35 1.7 13 -10.6 40 40 NNE 5 7 30.27 1025 10 16 0.00 0.00
2:51 am 02:51 Clear 34 1.1 14 -10 44 44 N 5 7 30.27 1025 10 16 0.00 0.00
3:51 am 03:51 Clear 34 1.1 14 -10 44 44 N 6 9 30.28 1025 10 16 0.00 0.00
4:51 am 04:51 Clear 34 1.1 17 -8.3 50 50 N 6 9 30.28 1026 10 16 0.00 0.00
5:51 am 05:51 Clear 34 1.1 20 -6.7 56 56 N 6 9 30.29 1026 10 16 0.00 0.00
6:14 am 06:14 Mostly Cloudy 34 1 19 -7 56 56 N 5 7 30.30 1026 10 16 0.00 0.00
6:23 am 06:23 Cloudy 34 1 21 -6 60 60 N 5 7 30.30 1026 10 16 0.00 0.00
6:51 am 06:51 Cloudy 35 1.7 23 -5 61 61 N 6 9 30.29 1026 10 16 0.00 0.00
7:51 am 07:51 Cloudy with Haze 39 3.9 32 0 76 76 ENE 13 20 30.30 1026 6 10 0.00 0.00
8:23 am 08:23 Cloudy 39 4 30 -1 70 70 ENE 12 19 30.30 1026 8 13 0.00 0.00
8:51 am 08:51 Cloudy 39 3.9 31 -0.6 73 73 E 12 19 30.31 1027 10 16 0.00 0.00
9:51 am 09:51 Cloudy 39 3.9 29 -1.7 67 67 ENE 10 17 30.31 1027 10 16 0.00 0.00
10:51 am 10:51 Cloudy 39 3.9 28 -2.2 65 65 E 13 20 30.30 1026 10 16 0.00 0.00
11:51 am 11:51 Cloudy with Light Rain 39 3.9 28 -2.2 65 65 ENE 12 19 30.28 1026 7 11 0.00 0.03
12:51 pm 12:51 Cloudy with Light Rain 37 2.8 31 -0.6 79 79 ENE 12 19 30.25 1025 5 8 0.01 0.25
12:58 pm 12:58 Cloudy with Light Rain 37 3 30 -1 75 75 NE 9 15 30.24 1024 4 6 0.00 0.00
1:51 pm 13:51 Cloudy with Light Rain 37 2.8 32 0 82 82 NE 8 13 30.25 1024 5 8 0.02 0.51
2:51 pm 14:51 Cloudy with Light Rain 37 2.8 32 0 82 82 NE 9 15 30.24 1024 6 10 0.02 0.51
3:51 pm 15:51 Cloudy with Light Rain 37 3 32 0 81 81 NE 10 17 30.24 1024 3 5 0.00 0.00
4:51 pm 16:51 Cloudy with Light Rain 36 2.2 32 0 86 86 ENE 15 24 30.24 1024 4 6 0.03 0.76
5:51 pm 17:51 Cloudy with Light Rain 36 2.2 32 0 86 86 ENE 12 19 30.24 1024 2 3 0.01 0.25
6:51 pm 18:51 Cloudy with Light Rain 36 2.2 32 0 86 86 NE 12 19 30.25 1024 2 3 0.00 0.03
7:41 pm 19:41 Cloudy with Light Rain 36 2 32 0 87 87 ENE 14 22 30.24 1024 6 10 0.00 0.03
7:51 pm 19:51 Cloudy with Light Rain 36 2.2 32 0 86 86 E 20 31 30.23 1024 7 11 0.01 0.25
8:51 pm 20:51 Cloudy with Light Rain 36 2.2 32 0 86 86 E 15 24 30.24 1024 6 10 0.03 0.76
9:51 pm 21:51 Cloudy with Light Rain 36 2.2 32 0 86 86 ENE 15 24 30.22 1024 4 6 0.03 0.76
10:51 pm 22:51 Cloudy with Light Rain 36 2.2 36 2.2 100 100 NE 8 13 30.21 1023 4 6 0.02 0.51
11:32 pm 23:32 Cloudy with Light Rain 36 2 36 2 100 100 ENE 10 17 30.18 1022 3 4 0.00 0.00
11:51 pm 23:51 Cloudy with Light Rain 36 2.2 33 0.6 89 89 NE 12 19 30.18 1022 3 4 0.02 0.51

Powered by Vaisala Xweather